Regional Weather Roundup
Issued by NWS

Home | Current Version | Previous Version | Graphics & Text | Print | Product List | Glossary On
Versions: 1 2 3 4 5 6 7 8 9 10 11 12 13 14 15 16 17 18 19 20 21 22 23 24 25 26 27 28 29 30 31 32 33 34 35 36 37 38 39 40 41 42 43 44 45 46 47 48 49 50
000
ASUS43 KDTX 181210
RWRMI
MICHIGAN HOURLY REGIONAL WEATHER ROUNDUP
NATIONAL WEATHER SERVICE DETROIT/PONTIAC MI
800 AM EDT WED OCT 18 2017

NOTE: "FAIR" INDICATES FEW OR NO CLOUDS BELOW 12,000 FEET WITH NO
SIGNIFICANT WEATHER AND/OR OBSTRUCTION TO VISIBILITY.

MIZ047>049-052>055-059>063-066>070-074>076-081>083-181300-
SOUTHEAST LOWER MICHIGAN

CITY           SKY/WX    TMP DP  RH WIND       PRES   REMARKS
ADRIAN         CLEAR     43  38  82 SW6       30.26S
6HR MIN TEMP:  41; 6HR MAX TEMP:  49;

ALMA           CLEAR     46  40  79 S7        30.17S
ANN ARBOR      CLEAR     37  37 100 S3        30.24S
BAD AXE        CLEAR     46  39  76 SW5       30.18S
CARO           CLEAR     45  38  78 S6        30.17F
DETROIT CITY   CLEAR     48  41  76 SW7       30.25S
6HR MIN TEMP:  48; 6HR MAX TEMP:  55;

DETROIT        CLEAR     46  41  82 S9        30.26S
6HR MIN TEMP:  44; 6HR MAX TEMP:  50;

FLINT          CLEAR     49  40  71 SW8       30.21S
6HR MIN TEMP:  49; 6HR MAX TEMP:  53;

GROSSE ILE     CLEAR     49  41  73 SW6       30.25S
6HR MIN TEMP:  49; 6HR MAX TEMP:  54;

HILLSDALE      CLEAR     43  37  81 S5        30.23F
HOWELL         CLEAR     47  40  77 S5        30.21S
6HR MIN TEMP:  47; 6HR MAX TEMP:  51;


CITY           SKY/WX    TMP DP  RH WIND       PRES   REMARKS
JACKSON        CLEAR     48  39  71 S8        30.22F
6HR MIN TEMP:  46; 6HR MAX TEMP:  52;

LAMBERTVILLE   CLEAR     45  40  80 S3        30.26F
6HR MIN TEMP:  45; 6HR MAX TEMP:  55;

LANSING        CLEAR     49  39  68 S7        30.20S
6HR MIN TEMP:  48; 6HR MAX TEMP:  53;

LAPEER         FAIR      40  39  95 CALM      30.21S
6HR MIN TEMP:  40; 6HR MAX TEMP:  51;

MASON          CLEAR     50  40  67 S3        30.21S
MONROE         CLEAR     43  38  82 SW5       30.26S
6HR MIN TEMP:  42; 6HR MAX TEMP:  52;

MT. CLEMENS    CLEAR     46  42  85 SW7       30.22S
6HR MIN TEMP:  44; 6HR MAX TEMP:  53;

PONTIAC        PTCLDY    46  41  82 CALM      30.22S
6HR MIN TEMP:  46; 6HR MAX TEMP:  52;

PORT HOPE        N/A     52  41  66 SW8       30.14S
6HR MIN TEMP:  52; 6HR MAX TEMP:  56;

PORT HURON     CLEAR     48  41  76 CALM      30.23S
TRI CITIES     CLEAR     49  42  77 S8        30.17F
6HR MIN TEMP:  49; 6HR MAX TEMP:  53;

MIDLAND        FAIR      46  40  80 CALM      30.15F
6HR MIN TEMP:  46; 6HR MAX TEMP:  53;

TROY           CLEAR     47  41  81 S5        30.26R
SAGINAW HB     CLEAR     43  39  87 S6        30.17S
$$
MIZ043>046-050>051-056>058-064>065-071>073-077>080-181300-
SOUTHWEST LOWER MICHIGAN

CITY           SKY/WX    TMP DP  RH WIND       PRES   REMARKS
BATTLE CREEK   CLEAR     46  40  79 S10       30.21F
6HR MIN TEMP:  46; 6HR MAX TEMP:  51;

BENTON HARBOR  CLEAR     49  39  68 S7        30.19S
6HR MIN TEMP:  49; 6HR MAX TEMP:  53;

BIG RAPIDS     CLEAR     47  45  90 S3        30.13S
6HR MIN TEMP:  47; 6HR MAX TEMP:  56;

COLDWATER      CLEAR     47  38  73 CALM      30.23F
6HR MIN TEMP:  46; 6HR MAX TEMP:  51;

FREMONT        FAIR      46  46  99 S5        30.14S
HOLLAND        CLEAR     48  40  73 S9        30.17S
6HR MIN TEMP:  47; 6HR MAX TEMP:  57;

GRAND RAPIDS   PTCLDY    48  41  76 S9        30.17S
6HR MIN TEMP:  48; 6HR MAX TEMP:  54;

IONIA          FAIR      48  39  71 S8        30.17S
6HR MIN TEMP:  47; 6HR MAX TEMP:  52;

KALAMAZOO      CLEAR     47  39  74 S6        30.21F
6HR MIN TEMP:  41; 6HR MAX TEMP:  52;

LUDINGTON      CLEAR     56  49  75 S12       30.09S
6HR MIN TEMP:  56; 6HR MAX TEMP:  60;

MARSHALL       CLEAR     47  39  74 S3        30.21F
6HR MIN TEMP:  47; 6HR MAX TEMP:  53;

MOUNT PLEASANT CLEAR     49  42  77 CALM      30.15S
6HR MIN TEMP:  49; 6HR MAX TEMP:  57;

MUSKEGON       PTCLDY    59  49  69 S13       30.14S
6HR MIN TEMP:  58; 6HR MAX TEMP:  61;

SOUTH HAVEN    CLEAR     49  40  71 S6        30.18F
$$
MIZ016>042-181300-
NORTHERN LOWER MICHIGAN

CITY           SKY/WX    TMP DP  RH WIND       PRES   REMARKS
ALPENA         CLEAR     49  46  90 S7        30.09S
6HR MIN TEMP:  39; 6HR MAX TEMP:  50;

BEAVER ISLAND  CLEAR     58  52  79 SW12G17   30.01S
6HR MIN TEMP:  55; 6HR MAX TEMP:  59;

BELLAIRE       CLEAR     48  45  91 S3        30.07S
6HR MIN TEMP:  42; 6HR MAX TEMP:  50;

CADILLAC       CLEAR     51  46  81 S7        30.11R
CHARLEVOIX     CLEAR     55  48  78 S9G16     30.07S
FRANKFORT      CLEAR     56  48  76 S3        30.07S
GAYLORD        CLEAR     49  43  80 S7        30.08S
6HR MIN TEMP:  47; 6HR MAX TEMP:  51;

GRAYLING       CLEAR     51  44  77 SW8       30.10S
6HR MIN TEMP:  36; 6HR MAX TEMP:  52;

HARBOR SPRINGS CLEAR     52  46  80 CALM      30.04S
HOUGHTON LAKE  CLEAR     50  46  86 S9        30.12S
6HR MIN TEMP:  46; 6HR MAX TEMP:  53;

MANISTEE       CLEAR     47  45  93 VRB3      30.09R
OSCODA         CLEAR     48  42  79 SW10G17   30.13R
6HR MIN TEMP:  47; 6HR MAX TEMP:  50;

PELLSTON       CLEAR     51  46  83 S7        30.04S
6HR MIN TEMP:  37; 6HR MAX TEMP:  54;

ROGERS CITY    CLEAR     49  44  83 SW7       30.07S
TRAVERSE CITY  PTCLDY    56  46  69 SW8       30.06S
6HR MIN TEMP:  56; 6HR MAX TEMP:  58;

$$
MIZ007>008-015-181300-
EASTERN UPPER MICHIGAN

CITY           SKY/WX    TMP DP  RH WIND       PRES   REMARKS
KINROSS        CLEAR     48  47  96 S5        30.02S
6HR MIN TEMP:  44; 6HR MAX TEMP:  48;

MACKINAC ISLAN CLEAR     55  48  76 S9        30.02S
6HR MIN TEMP:  53; 6HR MAX TEMP:  55;

NEWBERRY       CLEAR     52  51  97 S14       29.97S
6HR MIN TEMP:  51; 6HR MAX TEMP:  53;

S. S. MARIE    FOG       46  45  96 E5        30.01S VSB 1/4
6HR MIN TEMP:  44; 6HR MAX TEMP:  46;

MUNISING         N/A     51  47  86 S10G20    29.93S
6HR MIN TEMP:  50; 6HR MAX TEMP:  54;

$$
MIZ004>006-011>014-085-181300-
CENTRAL UPPER MICHIGAN

CITY           SKY/WX    TMP DP  RH WIND       PRES   REMARKS
MANISTIQUE     CLEAR     55  49  81 S8        29.98S
6HR MIN TEMP:  55; 6HR MAX TEMP:  57;

ESCANABA       CLEAR     50  45  83 SW9       29.96F
6HR MIN TEMP:  50; 6HR MAX TEMP:  55;

MENOMINEE      CLEAR     52  44  74 SW9       29.99F
6HR MIN TEMP:  52; 6HR MAX TEMP:  56;

SAWYER-GWINN   CLEAR     43  41  93 S10       29.93S
$$
MIZ001>003-009>011-084-181300-
WESTERN UPPER MICHIGAN

CITY           SKY/WX    TMP DP  RH WIND       PRES   REMARKS
IRON MOUNTAIN  CLEAR     43  39  86 SE6       29.94S
6HR MIN TEMP:  43; 6HR MAX TEMP:  49;

HOUGHTON       CLEAR     51  43  74 SW5       29.81F
6HR MIN TEMP:  46; 6HR MAX TEMP:  53;

COPPER HARBOR    N/A     54  45  71 SW15G24   29.79F
6HR MIN TEMP:  54; 6HR MAX TEMP:  57;

IRONWOOD       CLEAR     53  43  68 S14       29.82F
6HR MIN TEMP:  53; 6HR MAX TEMP:  57;

$$

ABBREVIATIONS USED IN REMARKS
   TC - TEMPERATURE IN CELSIUS
  WCI - WIND CHILL INDEX
   HX - HEAT INDEX
  VSB - VISIBILITY




USA.gov is the U.S. government's official web portal to all federal, state and local government web resources and services.